カタログに戻る

STARLINK-1598

運用中通信VLEO
NORAD 46160·PAYLOAD·🇺🇸 United States

打ち上げ Aug 18, 2020 から Cape Canaveral Space Force Station

Loading…

次のパス (今後24時間)

TLE

最新Source: CelesTrak SupGP

元期: Sep 14, 2026, 15:34 UTC

1 46160C 20057AV  26257.64909722  .05251800  00000+0  12416-2 0  2575
2 46160  53.0220  61.9301 0011749 292.1658 276.7411 16.28647806    13

AllMySatでSTARLINK-1598をリアルタイム追跡

Download on the App Store